User: anonymous   Login
Location: Stara Lesna
(49.1528°N, 20.2911°E)
Time: 04:32:19
(UTC+01:00)
Language:

STARLINK-80 - Orbit

View from above orbital plane
View from above orbital plane
View from above satellite
View from above satellite

Ground track
Ground track

The orbit data is extracted from the following two-line orbital elements,

1 44282U 19029AZ  19322.53102658  .00005047  00000-0  22201-3 0  9994
2 44282  53.0178  72.2016 0001658 275.5114  84.5693 15.23567021 27285
Epoch (UTC): 18 November 2019 12:44:40
Eccentricity: 0.0001658
inclination: 53.0178°
perigee height: 494 km
apogee height: 496 km
right ascension of ascending node: 72.2016°
argument of perigee: 275.5114°
revolutions per day: 15.23567021
mean anomaly at epoch: 84.5693°
orbit number at epoch: 2728

The dashed part of the orbit path shows where the satellite is in the earth's shadow,  

DLR